Blackpool, United Kingdom

7:38 AM BST on September 25, 2017 (GMT +0100)
Blackpool

Weather History for EGNH - March, 2013

Change the Weather History Date:

Thursday, March 28, 2013

  Actual Average Record
Temperature  
Mean Temperature 36 °F -  
Max Temperature 43 °F 52 °F 62 °F (1998)
Min Temperature 29 °F 41 °F 29 °F (2013)
Degree Days  
Heating Degree Days 28    
Moisture  
Dew Point 24 °F    
Average Humidity 59    
Maximum Humidity 81    
Minimum Humidity 34    
Precipitation  
Precipitation 0.00 in - - ()
Sea Level Pressure  
Sea Level Pressure 30.01 in    
Wind  
Wind Speed 10 mph ()    
Max Wind Speed 20 mph    
Max Gust Speed -    
Visibility 6.2 miles    
Events      
Averages and records for this station are not official NWS values.
T = Trace of Precipitation, MM = Missing Value Source: Averaged Metar Reports

Daily Weather History Graph

Daily Weather History Graph

Search for Another Location

Airport or City:

Trip Planner

Search our weather history database for the weather conditions in past years. The results will help you decide how hot, cold, wet, or windy it might be!

Date:

Astronomy

Mar. 28, 2013 Rise Set
Actual Time 5:54 AM GMT 6:40 PM GMT
Civil Twilight 5:19 AM GMT 7:16 PM GMT
Nautical Twilight 4:36 AM GMT 7:59 PM GMT
Astronomical Twilight 3:50 AM GMT 8:45 PM GMT
Moon 8:36 PM GMT (3/28) 5:59 AM GMT (3/28)
Length of Visible Light 13h 56m
Length of Day
12h 45m
Full, 98% of the Moon is Illuminated
Mar 28
Full
Apr 3
Last Quarter
Apr 10
New
Apr 18
First Quarter
Apr 25
Full

Hourly Weather History & Observations

Time (GMT) Temp. Windchill Dew Point Humidity Pressure Visibility Wind Dir Wind Speed Gust Speed Precip Events Conditions
2:50 AM 32 °F - 25 °F 65%  in - NNE 8.1 mph - -  
5:50 AM 30 °F - 25 °F 75%  in - NNE 6.9 mph - -  
6:20 AM 32.0 °F 24.8 °F 26.6 °F 80% 30.01 in 6.2 mi NNE 8.1 mph - N/A   Partly Cloudy
6:50 AM 32.0 °F 25.6 °F 26.6 °F 80% 30.01 in 6.2 mi NNE 6.9 mph - N/A   Partly Cloudy
7:20 AM 32.0 °F 25.6 °F 26.6 °F 80% 30.01 in 6.2 mi NNE 6.9 mph - N/A   Partly Cloudy
7:50 AM 33.8 °F 27.7 °F 28.4 °F 81% 30.01 in 6.2 mi NNE 6.9 mph - N/A   Scattered Clouds
8:20 AM 35.6 °F 29.2 °F 30.2 °F 81% 30.01 in 6.2 mi NNE 8.1 mph - N/A   Scattered Clouds
8:50 AM 37 °F - 28 °F 61%  in - NE 8.1 mph - -  
8:50 AM 37.4 °F 32.1 °F 30.2 °F 75% 30.01 in 6.2 mi NE 6.9 mph - N/A   Partly Cloudy
9:20 AM 39.2 °F 32.0 °F 28.4 °F 65% 30.01 in 6.2 mi ENE 11.5 mph - N/A   Scattered Clouds
9:50 AM 39.2 °F 30.2 °F 26.6 °F 61% 30.01 in 6.2 mi East 17.3 mph - N/A   Scattered Clouds
10:20 AM 39.2 °F 29.8 °F 24.8 °F 56% 30.01 in 6.2 mi ENE 18.4 mph - N/A   Scattered Clouds
10:50 AM 39.2 °F 30.2 °F 23.0 °F 52% 30.01 in 6.2 mi East 17.3 mph - N/A   Scattered Clouds
11:20 AM 41.0 °F 32.5 °F 24.8 °F 53% 30.01 in 6.2 mi East 17.3 mph - N/A   Scattered Clouds
11:50 AM 40 °F - 23 °F 38%  in - East 18.4 mph - -  
11:50 AM 41.0 °F 31.9 °F 24.8 °F 53% 30.01 in 6.2 mi East 19.6 mph - N/A   Mostly Cloudy
12:20 PM 39.2 °F 30.2 °F 24.8 °F 56% 30.01 in 6.2 mi East 17.3 mph - N/A   Scattered Clouds
12:50 PM 41.0 °F 33.5 °F 23.0 °F 49% 30.01 in 6.2 mi East 13.8 mph - N/A   Scattered Clouds
1:20 PM 41.0 °F 32.8 °F 23.0 °F 49% 30.01 in 6.2 mi East 16.1 mph - N/A   Scattered Clouds
1:50 PM 41.0 °F 32.8 °F 24.8 °F 53% 30.01 in 6.2 mi East 16.1 mph - N/A   Scattered Clouds
2:20 PM 41.0 °F 33.1 °F 23.0 °F 49% 30.01 in 6.2 mi East 15.0 mph - N/A   Scattered Clouds
2:50 PM 43 °F - 24 °F 34%  in - East 16.1 mph - -  
2:50 PM 41.0 °F 33.1 °F 23.0 °F 49% 30.01 in 6.2 mi East 15.0 mph - N/A   Scattered Clouds
3:20 PM 41.0 °F 32.8 °F 23.0 °F 49% 29.98 in 6.2 mi East 16.1 mph - N/A   Scattered Clouds
3:50 PM 42.8 °F 35.8 °F 23.0 °F 46% 29.98 in 6.2 mi East 13.8 mph - N/A   Scattered Clouds
4:20 PM 39.2 °F 30.2 °F 21.2 °F 49% 29.98 in 6.2 mi East 17.3 mph - N/A   Scattered Clouds
4:50 PM 41.0 °F 32.8 °F 21.2 °F 45% 29.98 in 6.2 mi East 16.1 mph - N/A   Partly Cloudy
5:20 PM 39.2 °F 30.5 °F 23.0 °F 52% 30.01 in 6.2 mi East 16.1 mph - N/A   Partly Cloudy
5:50 PM 38 °F - 23 °F 41%  in - East 13.8 mph - -  
5:50 PM 39.2 °F 31.6 °F 23.0 °F 52% 30.01 in 6.2 mi East 12.7 mph - N/A   Partly Cloudy
6:20 PM 39.2 °F 32.0 °F 23.0 °F 52% 30.01 in 6.2 mi East 11.5 mph - N/A   Partly Cloudy
6:50 PM 37.4 °F 31.4 °F 23.0 °F 56% 30.04 in 6.2 mi East 8.1 mph - N/A   Partly Cloudy
7:20 PM 35.6 °F 31.7 °F 23.0 °F 60% 30.04 in 6.2 mi East 4.6 mph - N/A   Partly Cloudy
7:50 PM 35.6 °F 28.6 °F 23.0 °F 60% 30.04 in 6.2 mi East 9.2 mph - N/A   Partly Cloudy
8:20 PM 33.8 °F 29.6 °F 24.8 °F 70% 30.04 in 6.2 mi ENE 4.6 mph - N/A   Partly Cloudy
8:50 PM 32 °F - 22 °F 56%  in - ENE 6.9 mph - -  
8:50 PM 32.0 °F 25.6 °F 23.0 °F 69% 30.04 in 6.2 mi ENE 6.9 mph - N/A   Partly Cloudy
9:20 PM 32.0 °F 26.4 °F 23.0 °F 69% 30.04 in 6.2 mi ENE 5.8 mph - N/A   Partly Cloudy
11:50 PM 29 °F - 21 °F 63%  in - ENE 8.1 mph - -